Weather History for Jaffrey, NH

Change the Weather History Date:

Friday, April 12, 2013

  Actual Average Record
Temperature  
Mean Temperature 32 °F -  
Max Temperature 35 °F 52 °F 69 °F (2006)
Min Temperature 30 °F 29 °F 25 °F (1998)
Degree Days  
Heating Degree Days 32    
Moisture  
Dew Point 29 °F    
Average Humidity 90    
Maximum Humidity 96    
Minimum Humidity 81    
Precipitation  
Precipitation 0.45 in - - ()
Sea Level Pressure  
Sea Level Pressure 29.99 in    
Wind  
Wind Speed 4 mph (ENE)    
Max Wind Speed 9 mph    
Max Gust Speed 18 mph    
Visibility 3 miles    
Events Rain , Snow    
Averages and records for this station are not official NWS values.
T = Trace of Precipitation, MM = Missing Value Source: NWS Daily Summary

Daily Weather History Graph

Daily Weather History Graph

Search for Another Location

Airport:

Trip Planner

Search our weather history database for the weather conditions in past years. The results will help you decide how hot, cold, wet, or windy it might be!

Date:

Astronomy

Apr. 12, 2013 Rise Set
Actual Time 6:11 AM EDT 7:27 PM EDT
Civil Twilight 5:41 AM EDT 7:56 PM EDT
Nautical Twilight 5:06 AM EDT 8:31 PM EDT
Astronomical Twilight 4:29 AM EDT 9:08 PM EDT
Moon 7:15 AM EDT (4/12) 9:58 PM EDT (4/12)
Length of Visible Light 14h 14m
Length of Day
13h 16m
Waxing Crescent, 5% of the Moon is Illuminated
Apr 12
Waxing Crescent
Apr 18
First Quarter
Apr 25
Full
May 2
Last Quarter
May 9
New

Hourly Weather History & Observations

Time (EDT) Temp. Windchill Dew Point Humidity Pressure Visibility Wind Dir Wind Speed Gust Speed Precip Events Conditions
12:52 AM 35.1 °F - 32.0 °F 89% 30.17 in 10.0 mi Calm Calm - N/A   Overcast
1:52 AM 34.0 °F - 30.9 °F 89% 30.16 in 8.0 mi Calm Calm - 0.00 in Rain Light Rain
2:52 AM 34.0 °F - 30.0 °F 85% 30.16 in 6.0 mi Calm Calm - 0.04 in Rain Light Rain
3:52 AM 33.1 °F - 28.0 °F 82% 30.17 in 10.0 mi Calm Calm - 0.03 in Rain Light Rain
4:35 AM 33.8 °F 30.8 °F 28.4 °F 81% 30.14 in 10.0 mi Variable 3.5 mph - 0.00 in Rain Light Rain
4:52 AM 32.0 °F 27.5 °F 28.9 °F 88% 30.16 in 4.0 mi Variable 4.6 mph - 0.04 in Rain Rain
5:10 AM 32.0 °F 26.4 °F 28.4 °F 87% 30.12 in 10.0 mi Variable 5.8 mph - 0.00 in   Overcast
5:52 AM 30.9 °F 22.8 °F 28.0 °F 89% 30.17 in 6.0 mi NE 9.2 mph - 0.00 in   Overcast
6:01 AM 30.2 °F 22.6 °F 28.4 °F 93% 30.13 in 5.0 mi ENE 8.1 mph - 0.00 in   Overcast
6:49 AM 30.2 °F 25.4 °F 28.4 °F 93% 30.13 in 3.0 mi Variable 4.6 mph - 0.00 in Rain Light Freezing Rain
6:52 AM 30.9 °F 27.5 °F 28.0 °F 89% 30.17 in 3.0 mi Variable 3.5 mph - 0.00 in Rain Light Freezing Rain
6:59 AM 30.2 °F 23.4 °F 28.4 °F 93% 30.12 in 2.5 mi ENE 6.9 mph 18.4 mph 0.00 in Snow Light Snow
7:09 AM 30.2 °F 25.4 °F 28.4 °F 93% 30.12 in 4.0 mi Variable 4.6 mph - 0.00 in   Overcast
7:52 AM 30.0 °F 23.2 °F 27.0 °F 88% 30.17 in 6.0 mi Variable 6.9 mph - 0.00 in   Overcast
8:52 AM 30.0 °F 24.1 °F 27.0 °F 88% 30.15 in 6.0 mi Variable 5.8 mph - N/A   Overcast
9:52 AM 30.9 °F 25.2 °F 28.0 °F 89% 30.09 in 4.0 mi Variable 5.8 mph - N/A   Overcast
9:59 AM 30.2 °F 22.6 °F 28.4 °F 93% 30.05 in 4.0 mi NNE 8.1 mph - N/A   Overcast
10:32 AM 30.2 °F 23.4 °F 28.4 °F 93% 30.03 in 3.0 mi Variable 6.9 mph 16.1 mph 0.01 in Rain Light Freezing Rain
10:52 AM 32.0 °F 27.5 °F 28.9 °F 88% 30.08 in 3.0 mi Variable 4.6 mph - 0.02 in Rain Light Freezing Rain
11:01 AM 32.0 °F 25.6 °F 28.4 °F 87% 30.03 in 5.0 mi Variable 6.9 mph - 0.00 in Rain Light Freezing Rain
11:18 AM 32.0 °F - 28.4 °F 87% 30.02 in 2.5 mi Calm Calm - 0.03 in Rain Light Freezing Rain
11:34 AM 32.0 °F 27.5 °F 28.4 °F 87% 30.01 in 3.0 mi Variable 4.6 mph - 0.06 in Rain Light Freezing Rain
11:48 AM 32.0 °F - 28.4 °F 87% 30.03 in 2.5 mi Calm Calm - 0.10 in   Overcast
11:52 AM 32.0 °F 28.7 °F 28.9 °F 88% 30.06 in 2.0 mi Variable 3.5 mph - 0.11 in   Overcast
12:01 PM 32.0 °F 25.6 °F 28.4 °F 87% 29.99 in 1.8 mi Variable 6.9 mph - 0.04 in   Overcast
12:21 PM 32.0 °F 26.4 °F 28.4 °F 87% 29.99 in 3.0 mi ESE 5.8 mph - 0.09 in   Overcast
12:52 PM 32.0 °F 27.5 °F 28.9 °F 88% 30.06 in 2.5 mi Variable 4.6 mph - 0.15 in   Overcast
1:00 PM 32.0 °F 28.7 °F 28.4 °F 87% 30.00 in 4.0 mi Variable 3.5 mph - 0.01 in   Overcast
1:10 PM 32.0 °F 26.4 °F 28.4 °F 87% 29.98 in 1.8 mi Variable 5.8 mph - 0.02 in Snow Light Snow
1:16 PM 32.0 °F 27.5 °F 28.4 °F 87% 29.98 in 1.0 mi Variable 4.6 mph - 0.03 in Snow Light Snow
1:23 PM 32.0 °F 27.5 °F 28.4 °F 87% 29.97 in 0.8 mi Variable 4.6 mph - 0.03 in Snow Light Snow
1:29 PM 32.0 °F 27.5 °F 28.4 °F 87% 29.97 in 1.0 mi Variable 4.6 mph - 0.03 in Snow Light Snow
1:36 PM 32.0 °F 26.4 °F 28.4 °F 87% 29.96 in 1.0 mi Variable 5.8 mph - 0.04 in Snow Light Snow
1:39 PM 32.0 °F 26.4 °F 28.4 °F 87% 29.96 in 1.5 mi Variable 5.8 mph - 0.04 in Snow Light Snow
1:43 PM 32.0 °F 26.4 °F 28.4 °F 87% 29.96 in 3.0 mi Variable 5.8 mph - 0.04 in Snow Light Snow
1:52 PM 32.0 °F 27.5 °F 28.9 °F 88% 30.01 in 7.0 mi Variable 4.6 mph - 0.04 in   Overcast
2:12 PM 32.0 °F 27.5 °F 28.4 °F 87% 29.95 in 1.8 mi Variable 4.6 mph - 0.00 in Snow Light Snow
2:16 PM 32.0 °F 27.5 °F 28.4 °F 87% 29.95 in 1.2 mi Variable 4.6 mph - 0.00 in Snow Light Snow
2:24 PM 32.0 °F 28.7 °F 28.4 °F 87% 29.94 in 0.8 mi Variable 3.5 mph - 0.01 in Snow Light Snow
2:37 PM 32.0 °F 27.5 °F 28.4 °F 87% 29.94 in 1.0 mi Variable 4.6 mph - 0.01 in Snow Light Snow
2:47 PM 32.0 °F 24.8 °F 28.4 °F 87% 29.94 in 1.2 mi East 8.1 mph - 0.01 in Snow Light Snow
2:52 PM 32.0 °F 28.7 °F 30.0 °F 92% 29.98 in 1.2 mi Variable 3.5 mph - 0.01 in Snow Light Snow
2:59 PM 32.0 °F 28.7 °F 28.4 °F 87% 29.93 in 1.5 mi Variable 3.5 mph - 0.00 in Snow Light Snow
3:03 PM 32.0 °F 25.6 °F 30.2 °F 93% 29.93 in 1.0 mi Variable 6.9 mph - 0.00 in Snow Light Snow
3:19 PM 32.0 °F 27.5 °F 30.2 °F 93% 29.92 in 1.5 mi Variable 4.6 mph - 0.00 in Snow Light Snow
3:40 PM 32.0 °F 28.7 °F 30.2 °F 93% 29.91 in 1.2 mi Variable 3.5 mph - 0.00 in Snow Light Snow
3:47 PM 32.0 °F 28.7 °F 30.2 °F 93% 29.91 in 1.0 mi Variable 3.5 mph - 0.00 in Snow Light Snow
3:52 PM 32.0 °F - 30.0 °F 92% 29.95 in 1.0 mi Calm Calm - 0.00 in Snow Light Snow
3:59 PM 32.0 °F 28.7 °F 30.2 °F 93% 29.90 in 1.5 mi Variable 3.5 mph - 0.00 in Snow Light Snow
4:09 PM 32.0 °F 28.7 °F 30.2 °F 93% 29.90 in 2.5 mi Variable 3.5 mph - 0.00 in   Overcast
4:34 PM 32.0 °F - 30.2 °F 93% 29.88 in 1.5 mi Calm Calm - 0.00 in Snow Light Snow
4:52 PM 32.0 °F 27.5 °F 30.0 °F 92% 29.94 in 1.5 mi Variable 4.6 mph - 0.01 in Snow Light Snow
5:03 PM 33.8 °F 29.6 °F 30.2 °F 87% 29.88 in 2.0 mi Variable 4.6 mph - 0.00 in   Overcast
5:19 PM 33.8 °F 27.0 °F 30.2 °F 87% 29.88 in 2.5 mi NE 8.1 mph - 0.00 in   Overcast
5:52 PM 32.0 °F 27.5 °F 30.0 °F 92% 29.92 in 2.5 mi Variable 4.6 mph - 0.00 in   Overcast
6:52 PM 32.0 °F 26.4 °F 30.0 °F 92% 29.90 in 2.0 mi Variable 5.8 mph - N/A   Overcast
7:25 PM 32.0 °F - 30.2 °F 93% 29.84 in 3.0 mi Calm Calm - N/A   Overcast
7:52 PM 32.0 °F 27.5 °F 30.0 °F 92% 29.90 in 3.0 mi Variable 4.6 mph - N/A   Overcast
8:35 PM 32.0 °F 24.8 °F 30.2 °F 93% 29.83 in 4.0 mi ENE 8.1 mph - N/A   Overcast
8:44 PM 32.0 °F 27.5 °F 30.2 °F 93% 29.82 in 4.0 mi Variable 4.6 mph - N/A   Overcast
8:52 PM 32.0 °F - 30.0 °F 92% 29.88 in 4.0 mi Calm Calm - N/A   Overcast
9:49 PM 32.0 °F 27.5 °F 30.2 °F 93% 29.82 in 5.0 mi Variable 4.6 mph - N/A   Overcast
9:52 PM 32.0 °F 28.7 °F 30.0 °F 92% 29.86 in 5.0 mi Variable 3.5 mph - N/A   Overcast
10:34 PM 32.0 °F 25.6 °F 30.2 °F 93% 29.81 in 5.0 mi NNE 6.9 mph - N/A   Overcast
10:52 PM 32.0 °F 26.4 °F 30.9 °F 96% 29.86 in 4.0 mi Variable 5.8 mph - 0.00 in Rain Light Freezing Rain
11:17 PM 32.0 °F 26.4 °F 30.2 °F 93% 29.80 in 4.0 mi Variable 5.8 mph - 0.00 in   Overcast
11:52 PM 32.0 °F 27.5 °F 30.0 °F 92% 29.86 in 3.0 mi Variable 4.6 mph - 0.00 in   Overcast